TimeIST,TemperatureF,Dew PointF,Humidity,Sea Level PressureIn,VisibilityMPH,Wind Direction,Wind SpeedMPH,Gust SpeedMPH,PrecipitationIn,Events,Conditions,WindDirDegrees,DateUTC
12:10 AM,55.4,44.6,67,29.89,2.5,NNW,3.5,-,N/A,,Smoke,330,2013-01-05 18:40:00
12:40 AM,55.4,50.0,82,29.89,2.5,NE,4.6,-,N/A,,Haze,40,2013-01-05 19:10:00
1:10 AM,51.8,44.6,76,29.89,2.5,NNE,4.6,-,N/A,,Haze,20,2013-01-05 19:40:00
1:40 AM,51.8,46.4,82,29.89,2.5,North,3.5,-,N/A,,Haze,10,2013-01-05 20:10:00
2:10 AM,51.8,48.2,88,29.89,2.5,ENE,2.3,-,N/A,,Haze,60,2013-01-05 20:40:00
2:30 AM,53,45,67,29.91,2,Calm,Calm,,,,,,2013-01-05 21:00:00
2:40 AM,51.8,44.6,76,29.89,2.5,NNE,6.9,-,N/A,,Haze,30,2013-01-05 21:10:00
3:10 AM,51.8,42.8,71,29.89,2.5,ENE,5.8,-,N/A,,Haze,70,2013-01-05 21:40:00
3:40 AM,50.0,41.0,71,29.89,2.5,NNE,4.6,-,N/A,,Haze,30,2013-01-05 22:10:00
4:10 AM,48.2,41.0,76,29.89,2.5,North,4.6,-,N/A,,Haze,10,2013-01-05 22:40:00
4:40 AM,48.2,41.0,76,29.89,2.5,NE,4.6,-,N/A,,Haze,50,2013-01-05 23:10:00
5:10 AM,48.2,41.0,76,29.92,2.5,NE,4.6,-,N/A,,Haze,50,2013-01-05 23:40:00
5:30 AM,54,46,67,29.94,2,NE,4.6,,,,,50,2013-01-06 00:00:00
6:10 AM,48.2,39.2,71,29.92,2.2,NE,5.8,-,N/A,,Haze,50,2013-01-06 00:40:00
7:40 AM,50.0,39.2,66,29.95,1.2,ENE,4.6,-,N/A,,Haze,70,2013-01-06 02:10:00
8:10 AM,53.6,39.2,58,29.98,1.2,ENE,5.8,-,N/A,,Haze,70,2013-01-06 02:40:00
8:30 AM,56,42,49,30.00,1,NE,3.5,,,,Smoke,50,2013-01-06 03:00:00
8:40 AM,55.4,39.2,54,29.98,1.2,ENE,9.2,-,N/A,,Haze,70,2013-01-06 03:10:00
10:40 AM,66.2,39.2,37,30.01,1.9,East,10.4,-,N/A,,Smoke,80,2013-01-06 05:10:00
11:10 AM,68.0,39.2,35,30.01,2.5,East,8.1,-,N/A,,Smoke,80,2013-01-06 05:40:00
11:30 AM,69,46,32,30.03,2,NE,3.5,,,,,50,2013-01-06 06:00:00
12:10 PM,73.4,44.6,36,29.98,2.5,ENE,8.1,-,N/A,,Smoke,60,2013-01-06 06:40:00
1:10 PM,75.2,41.0,29,29.95,3.1,ENE,9.2,-,N/A,,Smoke,70,2013-01-06 07:40:00
1:40 PM,75.2,37.4,25,29.92,3.1,NE,6.9,-,N/A,,Smoke,50,2013-01-06 08:10:00
2:10 PM,75.2,39.2,27,29.92,3.1,ENE,8.1,-,N/A,,Smoke,60,2013-01-06 08:40:00
2:30 PM,76,45,23,29.94,2,NNW,4.6,,,,,340,2013-01-06 09:00:00
2:40 PM,77.0,39.2,26,29.89,3.7,ENE,9.2,-,N/A,,Unknown,60,2013-01-06 09:10:00
3:10 PM,77.0,37.4,24,29.89,3.7,ENE,6.9,-,N/A,,Unknown,60,2013-01-06 09:40:00
3:40 PM,77.0,39.2,26,29.89,3.7,NE,5.8,-,N/A,,Unknown,40,2013-01-06 10:10:00
4:10 PM,77.0,37.4,24,29.89,3.7,ENE,9.2,-,N/A,,Unknown,60,2013-01-06 10:40:00
4:40 PM,75.2,37.4,25,29.89,3.7,ENE,6.9,-,N/A,,Unknown,70,2013-01-06 11:10:00
5:10 PM,75.2,37.4,25,29.89,3.7,NE,5.8,-,N/A,,Unknown,40,2013-01-06 11:40:00
5:30 PM,74,52,36,29.93,2,NNW,3.5,,,,Clear,340,2013-01-06 12:00:00
5:40 PM,73.4,35.6,25,29.92,3.1,NNE,5.8,-,N/A,,Smoke,20,2013-01-06 12:10:00
6:10 PM,71.6,37.4,29,29.92,2.5,NNE,3.5,-,N/A,,Smoke,20,2013-01-06 12:40:00
6:40 PM,69.8,37.4,31,29.92,2.5,North,3.5,-,N/A,,Smoke,10,2013-01-06 13:10:00
7:10 PM,66.2,37.4,35,29.92,2.5,NNE,3.5,-,N/A,,Smoke,20,2013-01-06 13:40:00
7:40 PM,66.2,37.4,35,29.92,2.5,North,3.5,-,N/A,,Smoke,10,2013-01-06 14:10:00
8:10 PM,62.6,37.4,39,29.95,2.5,NNE,3.5,-,N/A,,Smoke,20,2013-01-06 14:40:00
8:30 PM,59,46,53,29.97,2,Calm,Calm,,,,Haze,,2013-01-06 15:00:00
8:40 PM,60.8,42.8,52,29.95,2.5,North,3.5,-,N/A,,Smoke,10,2013-01-06 15:10:00
9:10 PM,60.8,35.6,39,29.95,2.5,NNE,3.5,-,N/A,,Smoke,20,2013-01-06 15:40:00
9:40 PM,60.8,37.4,42,29.95,2.5,Variable,3.5,-,N/A,,Smoke,0,2013-01-06 16:10:00
10:10 PM,59.0,35.6,42,29.98,2.5,Variable,3.5,-,N/A,,Smoke,0,2013-01-06 16:40:00
10:40 PM,57.2,41.0,55,29.98,2.5,ENE,3.5,-,N/A,,Smoke,70,2013-01-06 17:10:00
11:10 PM,55.4,42.8,63,29.95,2.5,Variable,2.3,-,N/A,,Smoke,0,2013-01-06 17:40:00
11:30 PM,56,45,56,29.99,2,Calm,Calm,,,,Haze,,2013-01-06 18:00:00
11:40 PM,55.4,39.2,54,29.95,2.5,Variable,2.3,-,N/A,,Smoke,0,2013-01-06 18:10:00